Tracking 28514 objects as of 24-Feb-2024
HD Live streaming from Space Station
objects crossing your sky now

STARLINK 1024

Track STARLINK 1024 now!
10-day predictions
STARLINK 1024 is classified as:


NORAD ID: 44729
Int'l Code: 2019-074S
Perigee: 330.1 km
Apogee: 338.8 km
Inclination: 53.0 °
Period: 91.1 minutes
Semi major axis: 6705 km
RCS: Unknown
Launch date: November 11, 2019
Source: United States (US)
Launch site: AIR FORCE EASTERN TEST RANGE (AFETR)
Your satellite tracking list
Your tracking list is empty




NASA's NSSDC Master Catalog

Two Line Element Set (TLE):
1 44729U 19074S   24055.25001157  .00279334  00000-0  13571-2 0  9991
2 44729  53.0087 153.0391 0006469 295.6605 150.1619 15.81110195238559
Source of the keplerian elements: AFSPC